Location: S�tio Afonso Gruber
(26.1760°S, 49.5250°W)
Time: 09:45:31
(UTC+00:00)

NOAA 15 - Visible Passes

Search period start: 27 November 2022 00:00
Search period end: 07 December 2022 00:00
Orbit: 797 x 812 km, 98.6° (Epoch: 26 November)

Date Brightness Start Highest point End Pass type
(mag) Time Alt. Az. Time Alt. Az. Time Alt. Az.
27 Nov 4.6 22:46:23 10° SSE 22:51:43 66° ENE 22:56:59 10° N visible
28 Nov 7.7 00:29:32 10° SW 00:30:49 11° WSW 00:32:08 10° W visible
28 Nov 5.2 22:21:30 10° SE 22:26:21 35° E 22:31:09 10° NNE visible
29 Nov 7.1 00:01:55 10° SSW 00:05:47 21° WSW 00:09:39 10° WNW visible
29 Nov 6.1 23:35:46 10° S 23:40:40 37° WSW 23:45:31 10° NW visible
30 Nov 4.9 23:10:07 10° S 23:15:27 70° WSW 23:20:44 10° NNW visible
01 Dec 4.6 22:44:50 10° SSE 22:50:09 63° ENE 22:55:25 10° N visible
02 Dec 7.6 00:27:39 10° SW 00:29:17 11° WSW 00:30:55 10° W visible
02 Dec 5.3 22:19:58 10° SE 22:24:47 33° E 22:29:33 10° NNE visible
03 Dec 7.0 00:00:17 10° SSW 00:04:15 21° WSW 00:08:11 10° WNW visible
03 Dec 6.0 23:34:11 10° S 23:39:07 39° WSW 23:44:00 10° NW visible
04 Dec 4.9 23:08:33 10° S 23:13:54 73° WSW 23:19:11 10° NNW visible
05 Dec 4.7 22:43:18 10° SSE 22:48:36 61° ENE 22:53:50 10° N visible
06 Dec 7.6 00:25:51 10° SW 00:27:45 12° WSW 00:29:38 10° W visible
06 Dec 5.3 22:18:28 10° SE 22:23:14 32° E 22:27:56 10° NNE visible
